Time,TemperatureF,DewpointF,PressureIn,WindDirection,WindDirectionDegrees,WindSpeedMPH,WindSpeedGustMPH,Humidity,HourlyPrecipIn,Conditions,Clouds,dailyrainin,SoftwareType,DateUTC
2013-11-10 00:00:00,38.3,36.5,30.20,WSW,254,0.0,0.0,93,0.00,,,0.00,Wunderground v.1.15,2013-11-10 05:00:00,
2013-11-10 00:05:00,38.3,36.5,30.21,WSW,254,0.0,0.0,93,0.00,,,0.00,Wunderground v.1.15,2013-11-10 05:05:00,
2013-11-10 00:10:00,38.4,36.6,30.21,WSW,254,0.0,0.0,93,0.00,,,0.00,Wunderground v.1.15,2013-11-10 05:10:00,
2013-11-10 00:20:00,38.8,36.9,30.21,WSW,254,0.0,0.0,93,0.00,,,0.00,Wunderground v.1.15,2013-11-10 05:20:00,
2013-11-10 00:25:00,39.1,37.2,30.20,WSW,254,0.0,0.0,93,0.00,,,0.00,Wunderground v.1.15,2013-11-10 05:25:00,
2013-11-10 00:30:00,39.4,37.3,30.20,WSW,254,0.0,0.0,92,0.00,,,0.00,Wunderground v.1.15,2013-11-10 05:30:00,
2013-11-10 00:35:00,39.5,37.1,30.21,WSW,254,0.0,0.0,91,0.00,,,0.00,Wunderground v.1.15,2013-11-10 05:35:00,
2013-11-10 00:45:00,39.7,37.3,30.20,WSW,254,0.0,0.0,91,0.00,,,0.00,Wunderground v.1.15,2013-11-10 05:45:00,
2013-11-10 00:50:00,39.9,37.2,30.20,WSW,254,0.0,0.0,90,0.00,,,0.00,Wunderground v.1.15,2013-11-10 05:50:00,
2013-11-10 00:55:00,40.1,37.4,30.20,WSW,254,0.0,0.0,90,0.00,,,0.00,Wunderground v.1.15,2013-11-10 05:55:00,
2013-11-10 01:00:00,40.1,37.1,30.19,WSW,254,0.0,0.0,89,0.00,,,0.00,Wunderground v.1.15,2013-11-10 06:00:00,
2013-11-10 01:05:00,40.1,37.1,30.19,WSW,254,0.0,0.0,89,0.00,,,0.00,Wunderground v.1.15,2013-11-10 06:05:00,
2013-11-10 01:15:00,39.7,36.4,30.18,WSW,254,0.0,0.0,88,0.00,,,0.00,Wunderground v.1.15,2013-11-10 06:15:00,
2013-11-10 01:25:00,39.2,36.2,30.18,WSW,254,0.0,0.0,89,0.00,,,0.00,Wunderground v.1.15,2013-11-10 06:25:00,
2013-11-10 01:30:00,39.0,36.0,30.19,WSW,254,0.0,0.0,89,0.00,,,0.00,Wunderground v.1.15,2013-11-10 06:30:00,
2013-11-10 01:35:00,39.1,36.1,30.18,NNW,336,0.0,0.0,89,0.00,,,0.00,Wunderground v.1.15,2013-11-10 06:35:00,
2013-11-10 01:40:00,39.1,36.1,30.18,NNW,336,0.0,0.0,89,0.00,,,0.00,Wunderground v.1.15,2013-11-10 06:40:00,
2013-11-10 01:45:00,39.1,36.1,30.19,NNW,336,0.0,0.0,89,0.00,,,0.00,Wunderground v.1.15,2013-11-10 06:45:00,
2013-11-10 01:55:00,39.1,36.1,30.19,NNW,336,0.0,0.0,89,0.00,,,0.00,Wunderground v.1.15,2013-11-10 06:55:00,
2013-11-10 02:00:00,39.1,36.1,30.19,NNW,336,0.0,0.0,89,0.00,,,0.00,Wunderground v.1.15,2013-11-10 07:00:00,
2013-11-10 02:05:00,39.2,36.2,30.19,NNW,336,0.0,0.0,89,0.00,,,0.00,Wunderground v.1.15,2013-11-10 07:05:00,
2013-11-10 02:15:00,39.1,36.1,30.20,NNW,336,0.0,0.0,89,0.00,,,0.00,Wunderground v.1.15,2013-11-10 07:15:00,
2013-11-10 02:20:00,39.1,36.1,30.19,NNW,336,0.0,0.0,89,0.00,,,0.00,Wunderground v.1.15,2013-11-10 07:20:00,
2013-11-10 02:25:00,39.0,36.0,30.19,NNW,336,0.0,0.0,89,0.00,,,0.00,Wunderground v.1.15,2013-11-10 07:25:00,
2013-11-10 02:35:00,38.9,35.9,30.19,NNW,336,0.0,0.0,89,0.00,,,0.00,Wunderground v.1.15,2013-11-10 07:35:00,
2013-11-10 02:40:00,38.7,35.7,30.19,NNW,336,0.0,0.0,89,0.00,,,0.00,Wunderground v.1.15,2013-11-10 07:40:00,
2013-11-10 02:45:00,38.5,35.5,30.19,NNW,336,0.0,0.0,89,0.00,,,0.00,Wunderground v.1.15,2013-11-10 07:45:00,
2013-11-10 02:55:00,38.3,35.6,30.18,NNW,336,0.0,0.0,90,0.00,,,0.00,Wunderground v.1.15,2013-11-10 07:55:00,
2013-11-10 03:00:00,38.1,35.4,30.18,NNW,336,0.0,0.0,90,0.00,,,0.00,Wunderground v.1.15,2013-11-10 08:00:00,
2013-11-10 03:05:00,37.9,35.2,30.18,NNW,336,0.0,0.0,90,0.00,,,0.00,Wunderground v.1.15,2013-11-10 08:05:00,
2013-11-10 03:15:00,37.6,35.2,30.18,NNW,336,0.0,0.0,91,0.00,,,0.00,Wunderground v.1.15,2013-11-10 08:15:00,
2013-11-10 03:20:00,37.5,35.1,30.18,NNW,336,0.0,0.0,91,0.00,,,0.00,Wunderground v.1.15,2013-11-10 08:20:00,
2013-11-10 03:25:00,37.3,34.9,30.18,NNW,336,0.0,0.0,91,0.00,,,0.00,Wunderground v.1.15,2013-11-10 08:25:00,
2013-11-10 03:35:00,37.0,34.6,30.18,NNW,336,0.0,0.0,91,0.00,,,0.00,Wunderground v.1.15,2013-11-10 08:35:00,
2013-11-10 03:40:00,36.9,34.8,30.18,NNW,336,0.0,0.0,92,0.00,,,0.00,Wunderground v.1.15,2013-11-10 08:40:00,
2013-11-10 03:45:00,36.7,34.6,30.18,NNW,336,0.0,0.0,92,0.00,,,0.00,Wunderground v.1.15,2013-11-10 08:45:00,
2013-11-10 03:50:00,36.6,34.5,30.18,NNW,336,0.0,0.0,92,0.00,,,0.00,Wunderground v.1.15,2013-11-10 08:50:00,
2013-11-10 03:55:00,36.5,34.7,30.18,NNW,336,0.0,0.0,93,0.00,,,0.00,Wunderground v.1.15,2013-11-10 08:55:00,
2013-11-10 04:05:00,36.4,34.6,30.18,NNW,336,0.0,0.0,93,0.00,,,0.00,Wunderground v.1.15,2013-11-10 09:05:00,
2013-11-10 04:15:00,36.4,34.6,30.18,NNW,336,0.0,0.0,93,0.00,,,0.00,Wunderground v.1.15,2013-11-10 09:15:00,
2013-11-10 04:20:00,36.3,34.5,30.19,NNW,336,0.0,0.0,93,0.00,,,0.00,Wunderground v.1.15,2013-11-10 09:20:00,
2013-11-10 04:25:00,36.3,34.5,30.19,NNW,336,0.0,0.0,93,0.00,,,0.00,Wunderground v.1.15,2013-11-10 09:25:00,
2013-11-10 04:30:00,36.2,34.6,30.19,NNW,336,0.0,0.0,94,0.00,,,0.00,Wunderground v.1.15,2013-11-10 09:30:00,
2013-11-10 04:35:00,36.3,34.7,30.19,NNW,336,0.0,0.0,94,0.00,,,0.00,Wunderground v.1.15,2013-11-10 09:35:00,
2013-11-10 04:45:00,36.7,35.4,30.18,NNW,336,0.0,0.0,95,0.00,,,0.00,Wunderground v.1.15,2013-11-10 09:45:00,
2013-11-10 04:50:00,36.9,35.6,30.18,NNW,336,0.0,0.0,95,0.00,,,0.00,Wunderground v.1.15,2013-11-10 09:50:00,
2013-11-10 04:55:00,36.9,35.3,30.19,NNW,336,0.0,0.0,94,0.00,,,0.00,Wunderground v.1.15,2013-11-10 09:55:00,
2013-11-10 05:00:00,36.9,35.3,30.19,NNW,336,0.0,0.0,94,0.00,,,0.00,Wunderground v.1.15,2013-11-10 10:00:00,
2013-11-10 05:05:00,36.9,35.3,30.19,NNW,336,0.0,0.0,94,0.00,,,0.00,Wunderground v.1.15,2013-11-10 10:05:00,
2013-11-10 05:15:00,36.6,35.0,30.19,NNW,336,0.0,0.0,94,0.00,,,0.00,Wunderground v.1.15,2013-11-10 10:15:00,
2013-11-10 05:25:00,36.4,34.8,30.19,NNW,336,0.0,0.0,94,0.00,,,0.00,Wunderground v.1.15,2013-11-10 10:25:00,
2013-11-10 05:30:00,36.2,34.6,30.19,NNW,336,0.0,0.0,94,0.00,,,0.00,Wunderground v.1.15,2013-11-10 10:30:00,
2013-11-10 05:35:00,36.1,34.5,30.19,NNW,336,0.0,0.0,94,0.00,,,0.00,Wunderground v.1.15,2013-11-10 10:35:00,
2013-11-10 05:40:00,36.0,34.4,30.19,NNW,336,0.0,0.0,94,0.00,,,0.00,Wunderground v.1.15,2013-11-10 10:40:00,
2013-11-10 05:45:00,36.0,34.7,30.19,NNW,336,0.0,0.0,95,0.00,,,0.00,Wunderground v.1.15,2013-11-10 10:45:00,
2013-11-10 05:55:00,35.9,34.6,30.19,NNW,336,0.0,0.0,95,0.00,,,0.00,Wunderground v.1.15,2013-11-10 10:55:00,
2013-11-10 06:00:00,36.0,34.7,30.19,NNW,336,0.0,0.0,95,0.00,,,0.00,Wunderground v.1.15,2013-11-10 11:00:00,
2013-11-10 06:05:00,36.1,34.8,30.19,NNW,336,0.0,0.0,95,0.00,,,0.00,Wunderground v.1.15,2013-11-10 11:05:00,
2013-11-10 06:15:00,36.4,35.1,30.19,NNW,336,0.0,0.0,95,0.00,,,0.00,Wunderground v.1.15,2013-11-10 11:15:00,
2013-11-10 06:20:00,36.4,35.1,30.19,NNW,336,0.0,0.0,95,0.00,,,0.00,Wunderground v.1.15,2013-11-10 11:20:00,
2013-11-10 06:25:00,36.4,35.1,30.19,NNW,336,0.0,0.0,95,0.00,,,0.00,Wunderground v.1.15,2013-11-10 11:25:00,
2013-11-10 06:35:00,36.4,35.1,30.19,NNW,336,0.0,0.0,95,0.00,,,0.00,Wunderground v.1.15,2013-11-10 11:35:00,
2013-11-10 06:40:00,36.4,35.1,30.19,NNW,336,0.0,0.0,95,0.00,,,0.00,Wunderground v.1.15,2013-11-10 11:40:00,
2013-11-10 06:45:00,36.3,35.0,30.19,NNW,336,0.0,0.0,95,0.00,,,0.00,Wunderground v.1.15,2013-11-10 11:45:00,
2013-11-10 06:50:00,36.2,34.9,30.20,NNW,336,0.0,0.0,95,0.00,,,0.00,Wunderground v.1.15,2013-11-10 11:50:00,
2013-11-10 07:00:00,36.1,34.8,30.20,NNW,336,0.0,0.0,95,0.00,,,0.00,Wunderground v.1.15,2013-11-10 12:00:00,
2013-11-10 07:05:00,36.1,34.8,30.20,NNW,336,0.0,0.0,95,0.00,,,0.00,Wunderground v.1.15,2013-11-10 12:05:00,
2013-11-10 07:15:00,36.0,35.0,30.20,NNW,336,0.0,0.0,96,0.00,,,0.00,Wunderground v.1.15,2013-11-10 12:15:00,
2013-11-10 07:20:00,36.1,35.1,30.20,NNW,336,0.0,0.0,96,0.00,,,0.00,Wunderground v.1.15,2013-11-10 12:20:00,
2013-11-10 07:25:00,36.2,35.2,30.20,NNW,336,0.0,0.0,96,0.00,,,0.00,Wunderground v.1.15,2013-11-10 12:25:00,
2013-11-10 07:30:00,36.3,35.3,30.20,NNW,336,0.0,0.0,96,0.00,,,0.00,Wunderground v.1.15,2013-11-10 12:30:00,
2013-11-10 07:40:00,36.8,35.8,30.20,NNW,336,0.0,0.0,96,0.00,,,0.00,Wunderground v.1.15,2013-11-10 12:40:00,
2013-11-10 07:45:00,37.1,36.3,30.21,NNW,336,0.0,0.0,97,0.00,,,0.00,Wunderground v.1.15,2013-11-10 12:45:00,
2013-11-10 07:50:00,37.8,37.0,30.20,NNW,337,0.0,0.0,97,0.00,,,0.00,Wunderground v.1.15,2013-11-10 12:50:00,
2013-11-10 07:55:00,38.5,37.7,30.21,NNW,338,0.0,0.0,97,0.00,,,0.00,Wunderground v.1.15,2013-11-10 12:55:00,
2013-11-10 08:00:00,39.0,38.2,30.21,NNW,338,0.0,0.0,97,0.00,,,0.00,Wunderground v.1.15,2013-11-10 13:00:00,
2013-11-10 08:05:00,39.5,38.7,30.21,NNW,327,0.0,0.0,97,0.00,,,0.00,Wunderground v.1.15,2013-11-10 13:05:00,
2013-11-10 08:15:00,40.6,39.3,30.21,NW,325,0.0,0.0,95,0.00,,,0.00,Wunderground v.1.15,2013-11-10 13:15:00,
2013-11-10 08:20:00,41.3,39.4,30.21,West,271,0.0,1.0,93,0.00,,,0.00,Wunderground v.1.15,2013-11-10 13:20:00,
2013-11-10 08:25:00,42.2,40.0,30.21,West,271,0.0,1.0,92,0.00,,,0.00,Wunderground v.1.15,2013-11-10 13:25:00,
2013-11-10 08:30:00,42.9,40.2,30.21,West,271,0.0,0.0,90,0.00,,,0.00,Wunderground v.1.15,2013-11-10 13:30:00,
2013-11-10 08:35:00,43.6,40.3,30.21,West,271,0.0,0.0,88,0.00,,,0.00,Wunderground v.1.15,2013-11-10 13:35:00,
2013-11-10 08:40:00,44.1,40.2,30.21,West,271,0.0,0.0,86,0.00,,,0.00,Wunderground v.1.15,2013-11-10 13:40:00,
2013-11-10 08:50:00,45.1,40.6,30.21,West,271,0.0,0.0,84,0.00,,,0.00,Wunderground v.1.15,2013-11-10 13:50:00,
2013-11-10 08:55:00,45.7,40.5,30.21,West,271,0.0,0.0,82,0.00,,,0.00,Wunderground v.1.15,2013-11-10 13:55:00,
2013-11-10 09:00:00,46.1,40.9,30.21,West,271,0.0,0.0,82,0.00,,,0.00,Wunderground v.1.15,2013-11-10 14:00:00,
2013-11-10 09:05:00,46.7,40.9,30.21,West,271,0.0,0.0,80,0.00,,,0.00,Wunderground v.1.15,2013-11-10 14:05:00,
2013-11-10 09:15:00,47.7,41.2,30.20,WNW,297,0.0,0.0,78,0.00,,,0.00,Wunderground v.1.15,2013-11-10 14:15:00,
2013-11-10 09:20:00,48.5,41.6,30.20,WNW,297,0.0,0.0,77,0.00,,,0.00,Wunderground v.1.15,2013-11-10 14:20:00,
2013-11-10 09:25:00,49.4,41.5,30.20,WNW,297,0.0,0.0,74,0.00,,,0.00,Wunderground v.1.15,2013-11-10 14:25:00,
2013-11-10 09:30:00,50.1,41.4,30.20,South,186,0.0,0.0,72,0.00,,,0.00,Wunderground v.1.15,2013-11-10 14:30:00,
2013-11-10 09:35:00,51.3,41.1,30.20,South,185,0.0,1.0,68,0.00,,,0.00,Wunderground v.1.15,2013-11-10 14:35:00,
2013-11-10 09:45:00,53.8,41.5,30.20,SE,146,1.0,1.0,63,0.00,,,0.00,Wunderground v.1.15,2013-11-10 14:45:00,
2013-11-10 09:50:00,54.8,41.2,30.19,SE,144,2.0,3.0,60,0.00,,,0.00,Wunderground v.1.15,2013-11-10 14:50:00,
2013-11-10 09:55:00,55.5,41.8,30.20,SSW,202,2.0,3.0,60,0.00,,,0.00,Wunderground v.1.15,2013-11-10 14:55:00,
2013-11-10 10:00:00,56.1,41.5,30.19,SSE,156,2.0,2.0,58,0.00,,,0.00,Wunderground v.1.15,2013-11-10 15:00:00,
2013-11-10 10:05:00,56.6,42.0,30.19,SSE,150,2.0,2.0,58,0.00,,,0.00,Wunderground v.1.15,2013-11-10 15:05:00,
2013-11-10 10:15:00,57.4,41.8,30.19,South,177,1.0,2.0,56,0.00,,,0.00,Wunderground v.1.15,2013-11-10 15:15:00,
2013-11-10 10:25:00,58.0,41.9,30.19,South,176,2.0,3.0,55,0.00,,,0.00,Wunderground v.1.15,2013-11-10 15:25:00,
2013-11-10 10:30:00,58.4,42.3,30.18,SSE,156,2.0,2.0,55,0.00,,,0.00,Wunderground v.1.15,2013-11-10 15:30:00,
2013-11-10 10:35:00,58.8,42.7,30.18,NW,317,2.0,2.0,55,0.00,,,0.00,Wunderground v.1.15,2013-11-10 15:35:00,
2013-11-10 10:40:00,59.0,42.8,30.18,South,169,1.0,4.0,55,0.00,,,0.00,Wunderground v.1.15,2013-11-10 15:40:00,
2013-11-10 10:50:00,59.6,42.9,30.18,SW,215,1.0,1.0,54,0.00,,,0.00,Wunderground v.1.15,2013-11-10 15:50:00,
2013-11-10 10:55:00,60.0,42.8,30.17,South,184,2.0,2.0,53,0.00,,,0.00,Wunderground v.1.15,2013-11-10 15:55:00,
2013-11-10 11:00:00,60.4,42.7,30.17,West,279,2.0,2.0,52,0.00,,,0.00,Wunderground v.1.15,2013-11-10 16:00:00,
2013-11-10 11:10:00,61.1,43.3,30.17,SE,144,1.0,1.0,52,0.00,,,0.00,Wunderground v.1.15,2013-11-10 16:10:00,
2013-11-10 11:15:00,61.6,43.8,30.16,NW,314,1.0,1.0,52,0.00,,,0.00,Wunderground v.1.15,2013-11-10 16:15:00,
2013-11-10 11:20:00,62.0,43.1,30.16,SSE,157,2.0,2.0,50,0.00,,,0.00,Wunderground v.1.15,2013-11-10 16:20:00,
2013-11-10 11:30:00,62.7,43.3,30.15,SSE,152,2.0,2.0,49,0.00,,,0.00,Wunderground v.1.15,2013-11-10 16:30:00,
2013-11-10 11:35:00,62.9,43.4,30.15,South,178,2.0,3.0,49,0.00,,,0.00,Wunderground v.1.15,2013-11-10 16:35:00,
2013-11-10 11:40:00,63.2,43.7,30.14,WNW,292,2.0,2.0,49,0.00,,,0.00,Wunderground v.1.15,2013-11-10 16:40:00,
2013-11-10 11:50:00,64.2,43.5,30.13,SSE,159,2.0,2.0,47,0.00,,,0.00,Wunderground v.1.15,2013-11-10 16:50:00,
2013-11-10 11:55:00,64.6,43.9,30.13,South,188,2.0,2.0,47,0.00,,,0.00,Wunderground v.1.15,2013-11-10 16:55:00,
2013-11-10 12:00:00,64.9,43.0,30.13,ESE,115,3.0,3.0,45,0.00,,,0.00,Wunderground v.1.15,2013-11-10 17:00:00,
2013-11-10 12:05:00,65.3,44.0,30.13,SE,127,3.0,3.0,46,0.00,,,0.00,Wunderground v.1.15,2013-11-10 17:05:00,
2013-11-10 12:15:00,66.1,43.5,30.12,South,171,2.0,4.0,44,0.00,,,0.00,Wunderground v.1.15,2013-11-10 17:15:00,
2013-11-10 12:25:00,67.1,43.2,30.12,South,175,2.0,4.0,42,0.00,,,0.00,Wunderground v.1.15,2013-11-10 17:25:00,
2013-11-10 12:30:00,67.6,41.7,30.12,North,11,2.0,7.0,39,0.00,,,0.00,Wunderground v.1.15,2013-11-10 17:30:00,
2013-11-10 12:35:00,67.7,42.5,30.11,South,179,3.0,7.0,40,0.00,,,0.00,Wunderground v.1.15,2013-11-10 17:35:00,
2013-11-10 12:40:00,67.8,41.9,30.11,NW,312,3.0,3.0,39,0.00,,,0.00,Wunderground v.1.15,2013-11-10 17:40:00,
2013-11-10 12:50:00,68.2,41.6,30.10,ESE,104,3.0,7.0,38,0.00,,,0.00,Wunderground v.1.15,2013-11-10 17:50:00,
2013-11-10 12:55:00,68.3,41.7,30.10,East,94,4.0,7.0,38,0.00,,,0.00,Wunderground v.1.15,2013-11-10 17:55:00,
2013-11-10 13:00:00,68.5,41.9,30.10,SE,132,4.0,4.0,38,0.00,,,0.00,Wunderground v.1.15,2013-11-10 18:00:00,
2013-11-10 13:05:00,68.6,42.0,30.10,South,186,4.0,4.0,38,0.00,,,0.00,Wunderground v.1.15,2013-11-10 18:05:00,
2013-11-10 13:15:00,69.0,42.3,30.09,South,178,2.0,3.0,38,0.00,,,0.00,Wunderground v.1.15,2013-11-10 18:15:00,
2013-11-10 13:25:00,69.7,42.9,30.09,NW,306,2.0,5.0,38,0.00,,,0.00,Wunderground v.1.15,2013-11-10 18:25:00,
2013-11-10 13:30:00,69.7,42.9,30.09,WNW,303,3.0,5.0,38,0.00,,,0.00,Wunderground v.1.15,2013-11-10 18:30:00,
2013-11-10 13:35:00,69.7,42.3,30.08,NNW,337,3.0,5.0,37,0.00,,,0.00,Wunderground v.1.15,2013-11-10 18:35:00,
2013-11-10 13:45:00,70.1,41.2,30.08,West,274,3.0,4.0,35,0.00,,,0.00,Wunderground v.1.15,2013-11-10 18:45:00,
2013-11-10 13:50:00,70.3,42.8,30.08,SSE,159,3.0,3.0,37,0.00,,,0.00,Wunderground v.1.15,2013-11-10 18:50:00,
2013-11-10 13:55:00,70.5,42.2,30.08,SSE,157,2.0,3.0,36,0.00,,,0.00,Wunderground v.1.15,2013-11-10 18:55:00,
2013-11-10 14:00:00,70.6,41.6,30.08,SSE,156,3.0,3.0,35,0.00,,,0.00,Wunderground v.1.15,2013-11-10 19:00:00,
2013-11-10 14:05:00,70.7,41.7,30.08,SSW,211,3.0,3.0,35,0.00,,,0.00,Wunderground v.1.15,2013-11-10 19:05:00,
2013-11-10 14:15:00,70.7,40.9,30.08,SE,139,3.0,5.0,34,0.00,,,0.00,Wunderground v.1.15,2013-11-10 19:15:00,
2013-11-10 14:20:00,70.6,40.9,30.08,SE,133,3.0,3.0,34,0.00,,,0.00,Wunderground v.1.15,2013-11-10 19:20:00,
2013-11-10 14:25:00,70.7,41.7,30.07,NW,319,3.0,3.0,35,0.00,,,0.00,Wunderground v.1.15,2013-11-10 19:25:00,
2013-11-10 14:30:00,70.8,41.8,30.08,SE,136,2.0,2.0,35,0.00,,,0.00,Wunderground v.1.15,2013-11-10 19:30:00,
2013-11-10 14:35:00,70.9,41.1,30.07,SSW,212,3.0,3.0,34,0.00,,,0.00,Wunderground v.1.15,2013-11-10 19:35:00,
2013-11-10 14:45:00,71.0,41.2,30.08,SSE,159,3.0,3.0,34,0.00,,,0.00,Wunderground v.1.15,2013-11-10 19:45:00,
2013-11-10 14:50:00,70.9,40.3,30.08,SE,139,4.0,4.0,33,0.00,,,0.00,Wunderground v.1.15,2013-11-10 19:50:00,
2013-11-10 14:55:00,70.8,41.0,30.08,SSW,196,4.0,4.0,34,0.00,,,0.00,Wunderground v.1.15,2013-11-10 19:55:00,
2013-11-10 15:05:00,71.0,41.2,30.07,ESE,103,3.0,3.0,34,0.00,,,0.00,Wunderground v.1.15,2013-11-10 20:05:00,
2013-11-10 15:15:00,70.9,41.1,30.07,SSE,155,3.0,3.0,34,0.00,,,0.00,Wunderground v.1.15,2013-11-10 20:15:00,
2013-11-10 15:20:00,70.8,41.8,30.08,ENE,57,3.0,3.0,35,0.00,,,0.00,Wunderground v.1.15,2013-11-10 20:20:00,
2013-11-10 15:25:00,70.7,40.9,30.08,South,186,3.0,6.0,34,0.00,,,0.00,Wunderground v.1.15,2013-11-10 20:25:00,
2013-11-10 15:30:00,70.5,40.8,30.08,SE,142,3.0,4.0,34,0.00,,,0.00,Wunderground v.1.15,2013-11-10 20:30:00,
2013-11-10 15:40:00,70.2,42.0,30.08,NW,325,2.0,3.0,36,0.00,,,0.00,Wunderground v.1.15,2013-11-10 20:40:00,
2013-11-10 15:45:00,70.3,42.1,30.08,SE,146,1.0,3.0,36,0.00,,,0.00,Wunderground v.1.15,2013-11-10 20:45:00,
2013-11-10 15:50:00,70.3,41.3,30.08,SSE,163,2.0,2.0,35,0.00,,,0.00,Wunderground v.1.15,2013-11-10 20:50:00,
2013-11-10 15:55:00,70.1,41.9,30.08,South,178,2.0,2.0,36,0.00,,,0.00,Wunderground v.1.15,2013-11-10 20:55:00,
2013-11-10 16:05:00,69.6,41.5,30.08,SW,223,2.0,2.0,36,0.00,,,0.00,Wunderground v.1.15,2013-11-10 21:05:00,
2013-11-10 16:15:00,69.1,41.7,30.08,South,181,1.0,2.0,37,0.00,,,0.00,Wunderground v.1.15,2013-11-10 21:15:00,
2013-11-10 16:20:00,68.9,41.5,30.08,South,181,0.0,0.0,37,0.00,,,0.00,Wunderground v.1.15,2013-11-10 21:20:00,
2013-11-10 16:25:00,68.8,42.8,30.08,South,181,0.0,0.0,39,0.00,,,0.00,Wunderground v.1.15,2013-11-10 21:25:00,
2013-11-10 16:30:00,68.5,41.9,30.09,ENE,63,0.0,0.0,38,0.00,,,0.00,Wunderground v.1.15,2013-11-10 21:30:00,
2013-11-10 16:40:00,67.8,41.3,30.09,SW,226,0.0,0.0,38,0.00,,,0.00,Wunderground v.1.15,2013-11-10 21:40:00,
2013-11-10 16:45:00,67.5,43.0,30.09,SW,226,0.0,0.0,41,0.00,,,0.00,Wunderground v.1.15,2013-11-10 21:45:00,
2013-11-10 16:50:00,67.0,41.2,30.09,SE,133,0.0,0.0,39,0.00,,,0.00,Wunderground v.1.15,2013-11-10 21:50:00,
2013-11-10 17:00:00,66.2,41.8,30.09,SE,133,0.0,0.0,41,0.00,,,0.00,Wunderground v.1.15,2013-11-10 22:00:00,
2013-11-10 17:05:00,65.8,41.4,30.09,SE,133,0.0,0.0,41,0.00,,,0.00,Wunderground v.1.15,2013-11-10 22:05:00,
2013-11-10 17:15:00,64.8,44.1,30.10,SE,133,0.0,0.0,47,0.00,,,0.00,Wunderground v.1.15,2013-11-10 22:15:00,
2013-11-10 17:20:00,64.1,44.0,30.10,SE,133,0.0,0.0,48,0.00,,,0.00,Wunderground v.1.15,2013-11-10 22:20:00,
2013-11-10 17:25:00,63.3,44.3,30.10,SE,133,0.0,0.0,50,0.00,,,0.00,Wunderground v.1.15,2013-11-10 22:25:00,
2013-11-10 17:35:00,61.7,44.4,30.10,SE,133,0.0,0.0,53,0.00,,,0.00,Wunderground v.1.15,2013-11-10 22:35:00,
2013-11-10 17:40:00,60.9,42.6,30.10,SE,133,0.0,0.0,51,0.00,,,0.00,Wunderground v.1.15,2013-11-10 22:40:00,
2013-11-10 17:45:00,60.0,44.3,30.11,SE,133,0.0,0.0,56,0.00,,,0.00,Wunderground v.1.15,2013-11-10 22:45:00,
2013-11-10 17:50:00,59.0,43.3,30.11,SE,133,0.0,0.0,56,0.00,,,0.00,Wunderground v.1.15,2013-11-10 22:50:00,
2013-11-10 18:00:00,57.1,43.3,30.11,West,279,0.0,0.0,60,0.00,,,0.00,Wunderground v.1.15,2013-11-10 23:00:00,
2013-11-10 18:05:00,56.5,43.2,30.12,West,279,0.0,0.0,61,0.00,,,0.00,Wunderground v.1.15,2013-11-10 23:05:00,
2013-11-10 18:15:00,55.4,43.4,30.13,West,279,0.0,0.0,64,0.00,,,0.00,Wunderground v.1.15,2013-11-10 23:15:00,
2013-11-10 18:25:00,54.4,43.3,30.13,West,279,0.0,0.0,66,0.00,,,0.00,Wunderground v.1.15,2013-11-10 23:25:00,
2013-11-10 18:30:00,53.9,43.2,30.13,West,279,0.0,0.0,67,0.00,,,0.00,Wunderground v.1.15,2013-11-10 23:30:00,
2013-11-10 18:35:00,53.4,42.7,30.13,West,279,0.0,0.0,67,0.00,,,0.00,Wunderground v.1.15,2013-11-10 23:35:00,
2013-11-10 18:40:00,52.9,43.0,30.14,West,279,0.0,0.0,69,0.00,,,0.00,Wunderground v.1.15,2013-11-10 23:40:00,
2013-11-10 18:50:00,52.0,42.9,30.14,West,279,0.0,0.0,71,0.00,,,0.00,Wunderground v.1.15,2013-11-10 23:50:00,
2013-11-10 18:55:00,51.5,42.4,30.14,West,279,0.0,0.0,71,0.00,,,0.00,Wunderground v.1.15,2013-11-10 23:55:00,
2013-11-10 19:00:00,51.0,42.6,30.14,West,279,0.0,0.0,73,0.00,,,0.00,Wunderground v.1.15,2013-11-11 00:00:00,
2013-11-10 19:05:00,50.6,42.3,30.14,West,279,0.0,0.0,73,0.00,,,0.00,Wunderground v.1.15,2013-11-11 00:05:00,
2013-11-10 19:15:00,49.7,42.1,30.15,West,279,0.0,0.0,75,0.00,,,0.00,Wunderground v.1.15,2013-11-11 00:15:00,
2013-11-10 19:25:00,49.0,42.1,30.15,West,279,0.0,0.0,77,0.00,,,0.00,Wunderground v.1.15,2013-11-11 00:25:00,
2013-11-10 19:30:00,48.6,42.0,30.15,West,279,0.0,0.0,78,0.00,,,0.00,Wunderground v.1.15,2013-11-11 00:30:00,
2013-11-10 19:35:00,48.2,42.0,30.15,West,279,0.0,0.0,79,0.00,,,0.00,Wunderground v.1.15,2013-11-11 00:35:00,
2013-11-10 19:45:00,47.8,41.9,30.16,West,279,0.0,0.0,80,0.00,,,0.00,Wunderground v.1.15,2013-11-11 00:45:00,
2013-11-10 19:50:00,47.6,42.1,30.16,West,279,0.0,0.0,81,0.00,,,0.00,Wunderground v.1.15,2013-11-11 00:50:00,
2013-11-10 19:55:00,47.4,41.9,30.16,West,279,0.0,0.0,81,0.00,,,0.00,Wunderground v.1.15,2013-11-11 00:55:00,
2013-11-10 20:05:00,47.1,41.9,30.17,West,279,0.0,0.0,82,0.00,,,0.00,Wunderground v.1.15,2013-11-11 01:05:00,
2013-11-10 20:15:00,46.8,41.0,30.17,West,279,0.0,0.0,80,0.00,,,0.00,Wunderground v.1.15,2013-11-11 01:15:00,
2013-11-10 20:20:00,46.7,40.9,30.17,West,279,0.0,0.0,80,0.00,,,0.00,Wunderground v.1.15,2013-11-11 01:20:00,
2013-11-10 20:25:00,46.6,40.8,30.17,West,279,0.0,0.0,80,0.00,,,0.00,Wunderground v.1.15,2013-11-11 01:25:00,
2013-11-10 20:30:00,46.6,40.4,30.18,West,279,0.0,0.0,79,0.00,,,0.00,Wunderground v.1.15,2013-11-11 01:30:00,
2013-11-10 20:40:00,46.6,40.4,30.19,West,279,0.0,0.0,79,0.00,,,0.00,Wunderground v.1.15,2013-11-11 01:40:00,
2013-11-10 20:45:00,46.5,38.3,30.19,West,279,0.0,0.0,73,0.00,,,0.00,Wunderground v.1.15,2013-11-11 01:45:00,
2013-11-10 20:50:00,47.1,37.8,30.19,West,279,0.0,0.0,70,0.00,,,0.00,Wunderground v.1.15,2013-11-11 01:50:00,
2013-11-10 20:55:00,47.7,36.5,30.19,West,279,0.0,0.0,65,0.00,,,0.00,Wunderground v.1.15,2013-11-11 01:55:00,
2013-11-10 21:05:00,49.5,33.5,30.20,WNW,287,0.0,0.0,54,0.00,,,0.00,Wunderground v.1.15,2013-11-11 02:05:00,
2013-11-10 21:15:00,51.8,32.7,30.20,NW,305,0.0,0.0,48,0.00,,,0.00,Wunderground v.1.15,2013-11-11 02:15:00,
2013-11-10 21:20:00,52.7,33.0,30.21,NNW,331,0.0,0.0,47,0.00,,,0.00,Wunderground v.1.15,2013-11-11 02:20:00,
2013-11-10 21:25:00,53.5,32.7,30.21,NW,323,0.0,3.0,45,0.00,,,0.00,Wunderground v.1.15,2013-11-11 02:25:00,
2013-11-10 21:30:00,54.0,33.7,30.21,WNW,295,0.0,1.0,46,0.00,,,0.00,Wunderground v.1.15,2013-11-11 02:30:00,
2013-11-10 21:40:00,54.3,32.3,30.22,NW,324,0.0,0.0,43,0.00,,,0.00,Wunderground v.1.15,2013-11-11 02:40:00,
2013-11-10 21:45:00,54.4,32.3,30.21,NW,309,0.0,0.0,43,0.00,,,0.00,Wunderground v.1.15,2013-11-11 02:45:00,
2013-11-10 21:50:00,54.3,32.3,30.21,NW,305,0.0,0.0,43,0.00,,,0.00,Wunderground v.1.15,2013-11-11 02:50:00,
2013-11-10 22:00:00,54.2,32.2,30.22,WNW,302,0.0,0.0,43,0.00,,,0.00,Wunderground v.1.15,2013-11-11 03:00:00,
2013-11-10 22:05:00,54.2,32.2,30.21,NNW,336,0.0,0.0,43,0.00,,,0.00,Wunderground v.1.15,2013-11-11 03:05:00,
2013-11-10 22:15:00,54.0,32.0,30.23,NW,316,0.0,1.0,43,0.00,,,0.00,Wunderground v.1.15,2013-11-11 03:15:00,
2013-11-10 22:25:00,53.7,31.7,30.23,East,88,0.0,3.0,43,0.00,,,0.00,Wunderground v.1.15,2013-11-11 03:25:00,
2013-11-10 22:30:00,53.6,32.2,30.23,NNW,346,1.0,1.0,44,0.00,,,0.00,Wunderground v.1.15,2013-11-11 03:30:00,
2013-11-10 22:35:00,53.5,31.5,30.23,SSW,200,1.0,1.0,43,0.00,,,0.00,Wunderground v.1.15,2013-11-11 03:35:00,
2013-11-10 22:40:00,53.4,32.0,30.23,NNE,27,0.0,3.0,44,0.00,,,0.00,Wunderground v.1.15,2013-11-11 03:40:00,
2013-11-10 22:50:00,53.1,31.7,30.24,West,260,1.0,1.0,44,0.00,,,0.00,Wunderground v.1.15,2013-11-11 03:50:00,
2013-11-10 22:55:00,52.9,31.6,30.24,SW,218,0.0,1.0,44,0.00,,,0.00,Wunderground v.1.15,2013-11-11 03:55:00,
2013-11-10 23:00:00,52.8,32.0,30.24,West,259,0.0,0.0,45,0.00,,,0.00,Wunderground v.1.15,2013-11-11 04:00:00,
2013-11-10 23:05:00,52.6,31.8,30.24,ENE,66,0.0,0.0,45,0.00,,,0.00,Wunderground v.1.15,2013-11-11 04:05:00,
2013-11-10 23:15:00,52.3,31.6,30.25,WNW,298,0.0,2.0,45,0.00,,,0.00,Wunderground v.1.15,2013-11-11 04:15:00,
2013-11-10 23:20:00,52.0,31.8,30.24,North,355,0.0,0.0,46,0.00,,,0.00,Wunderground v.1.15,2013-11-11 04:20:00,
2013-11-10 23:30:00,51.5,31.9,30.25,NE,53,0.0,0.0,47,0.00,,,0.00,Wunderground v.1.15,2013-11-11 04:30:00,
2013-11-10 23:35:00,51.4,31.8,30.24,SE,134,0.0,0.0,47,0.00,,,0.00,Wunderground v.1.15,2013-11-11 04:35:00,
2013-11-10 23:45:00,50.8,31.8,30.25,North,360,0.0,3.0,48,0.00,,,0.00,Wunderground v.1.15,2013-11-11 04:45:00,
2013-11-10 23:50:00,50.7,31.7,30.25,West,273,0.0,0.0,48,0.00,,,0.00,Wunderground v.1.15,2013-11-11 04:50:00,
2013-11-10 23:55:00,50.5,32.0,30.25,NNE,14,0.0,0.0,49,0.00,,,0.00,Wunderground v.1.15,2013-11-11 04:55:00,